Time,TemperatureF,DewpointF,PressureIn,WindDirection,WindDirectionDegrees,WindSpeedMPH,WindSpeedGustMPH,Humidity,HourlyPrecipIn,Conditions,Clouds,dailyrainin,SoftwareType,DateUTC
2013-10-23 00:13:00,33.0,30.0,30.08,NW,319,1.0,-999.0,87,-99.99,,,-99.99,,2013-10-23 05:13:00,
2013-10-23 00:23:00,33.0,30.0,30.08,NW,319,0.0,-999.0,87,-99.99,,,-99.99,,2013-10-23 05:23:00,
2013-10-23 00:52:00,33.0,30.0,30.07,NW,319,0.0,-999.0,87,-99.99,,,-99.99,,2013-10-23 05:52:00,
2013-10-23 01:22:00,33.0,30.0,30.08,NW,319,0.0,-999.0,88,-99.99,,,-99.99,,2013-10-23 06:22:00,
2013-10-23 01:42:00,33.0,30.0,30.08,NW,319,0.0,-999.0,88,-99.99,,,-99.99,,2013-10-23 06:42:00,
2013-10-23 01:52:00,33.0,30.0,30.09,NW,319,0.0,-999.0,88,-99.99,,,-99.99,,2013-10-23 06:52:00,
2013-10-23 02:22:00,32.0,29.0,30.09,NW,319,0.0,-999.0,90,-99.99,,,-99.99,,2013-10-23 07:22:00,
2013-10-23 02:42:00,32.0,30.0,30.09,NW,319,0.0,-999.0,91,-99.99,,,-99.99,,2013-10-23 07:42:00,
2013-10-23 02:52:00,32.0,30.0,30.09,NW,319,0.0,-999.0,91,-99.99,,,-99.99,,2013-10-23 07:52:00,
2013-10-23 03:12:00,32.0,30.0,30.09,NW,319,0.0,-999.0,92,-99.99,,,-99.99,,2013-10-23 08:12:00,
2013-10-23 03:22:00,31.0,29.0,30.10,NW,319,0.0,-999.0,92,-99.99,,,-99.99,,2013-10-23 08:22:00,
2013-10-23 03:52:00,31.0,29.0,30.09,NW,319,0.0,-999.0,93,-99.99,,,-99.99,,2013-10-23 08:52:00,
2013-10-23 04:12:00,31.0,29.0,30.09,NW,319,0.0,-999.0,93,-99.99,,,-99.99,,2013-10-23 09:12:00,
2013-10-23 04:22:00,31.0,29.0,30.09,NW,319,0.0,-999.0,93,-99.99,,,-99.99,,2013-10-23 09:22:00,
2013-10-23 04:43:00,31.0,29.0,30.09,NW,319,0.0,-999.0,94,-99.99,,,-99.99,,2013-10-23 09:43:00,
2013-10-23 04:53:00,30.0,28.0,30.09,NW,319,0.0,-999.0,94,-99.99,,,-99.99,,2013-10-23 09:53:00,
2013-10-23 05:23:00,30.0,28.0,30.11,NW,319,0.0,-999.0,94,-99.99,,,-99.99,,2013-10-23 10:23:00,
2013-10-23 05:53:00,31.0,29.0,30.11,NW,319,0.0,-999.0,94,-99.99,,,-99.99,,2013-10-23 10:53:00,
2013-10-23 06:12:00,31.0,29.0,30.11,NW,319,0.0,-999.0,94,-99.99,,,-99.99,,2013-10-23 11:12:00,
2013-10-23 06:22:00,31.0,30.0,30.12,NW,319,0.0,-999.0,95,-99.99,,,-99.99,,2013-10-23 11:22:00,
2013-10-23 06:42:00,31.0,30.0,30.13,NW,319,0.0,-999.0,95,-99.99,,,-99.99,,2013-10-23 11:42:00,
2013-10-23 06:52:00,30.0,29.0,30.13,NW,319,0.0,-999.0,95,-99.99,,,-99.99,,2013-10-23 11:52:00,
2013-10-23 07:12:00,30.0,29.0,30.14,NW,319,0.0,-999.0,95,-99.99,,,-99.99,,2013-10-23 12:12:00,
2013-10-23 07:22:00,29.0,28.0,30.14,NW,319,0.0,-999.0,95,-99.99,,,-99.99,,2013-10-23 12:22:00,
2013-10-23 07:42:00,29.0,28.0,30.15,NW,319,0.0,-999.0,95,-99.99,,,-99.99,,2013-10-23 12:42:00,
2013-10-23 07:52:00,29.0,28.0,30.15,NW,319,0.0,-999.0,95,-99.99,,,-99.99,,2013-10-23 12:52:00,
2013-10-23 08:12:00,29.0,28.0,30.16,NW,319,0.0,-999.0,95,-99.99,,,-99.99,,2013-10-23 13:12:00,
2013-10-23 08:22:00,28.0,27.0,30.16,NW,319,0.0,-999.0,95,-99.99,,,-99.99,,2013-10-23 13:22:00,
2013-10-23 08:42:00,27.0,26.0,30.17,NW,319,0.0,-999.0,95,-99.99,,,-99.99,,2013-10-23 13:42:00,
2013-10-23 08:52:00,27.0,26.0,30.17,NW,319,0.0,-999.0,95,-99.99,,,-99.99,,2013-10-23 13:52:00,
2013-10-23 09:11:00,26.0,25.0,30.18,NW,319,0.0,-999.0,95,-99.99,,,-99.99,,2013-10-23 14:11:00,
2013-10-23 09:22:00,26.0,25.0,30.18,NW,319,0.0,-999.0,95,-99.99,,,-99.99,,2013-10-23 14:22:00,
2013-10-23 09:42:00,26.0,25.0,30.19,NW,319,1.0,-999.0,94,-99.99,,,-99.99,,2013-10-23 14:42:00,
2013-10-23 09:52:00,26.0,25.0,30.20,NW,319,2.0,-999.0,95,-99.99,,,-99.99,,2013-10-23 14:52:00,
2013-10-23 10:11:00,28.0,27.0,30.20,NW,318,3.0,-999.0,95,-99.99,,,-99.99,,2013-10-23 15:11:00,
2013-10-23 10:22:00,28.0,27.0,30.20,NW,315,4.0,-999.0,94,-99.99,,,-99.99,,2013-10-23 15:22:00,
2013-10-23 10:43:00,28.0,27.0,30.20,NW,315,3.0,-999.0,94,-99.99,,,-99.99,,2013-10-23 15:43:00,
2013-10-23 10:53:00,29.0,27.0,30.20,NW,307,4.0,-999.0,94,-99.99,,,-99.99,,2013-10-23 15:53:00,
2013-10-23 11:23:00,30.0,28.0,30.21,WNW,288,5.0,-999.0,93,-99.99,,,-99.99,,2013-10-23 16:23:00,
2013-10-23 11:53:00,32.0,30.0,30.21,WNW,286,7.0,-999.0,92,-99.99,,,-99.99,,2013-10-23 16:53:00,
2013-10-23 12:12:00,32.0,30.0,30.21,WNW,286,8.0,-999.0,91,-99.99,,,-99.99,,2013-10-23 17:12:00,
2013-10-23 12:23:00,32.0,29.0,30.22,WNW,287,9.0,-999.0,90,-99.99,,,-99.99,,2013-10-23 17:23:00,
2013-10-23 12:44:00,33.0,30.0,30.22,WNW,289,10.0,-999.0,89,-99.99,,,-99.99,,2013-10-23 17:44:00,
2013-10-23 12:52:00,34.0,31.0,30.22,WNW,295,8.0,-999.0,89,-99.99,,,-99.99,,2013-10-23 17:52:00,
2013-10-23 13:02:00,34.0,31.0,30.22,WNW,295,8.0,-999.0,89,-99.99,,,-99.99,,2013-10-23 18:02:00,
2013-10-23 13:12:00,34.0,31.0,30.22,WNW,295,8.0,-999.0,89,-99.99,,,-99.99,,2013-10-23 18:12:00,
2013-10-23 13:22:00,35.0,32.0,30.22,WNW,303,9.0,-999.0,87,-99.99,,,-99.99,,2013-10-23 18:22:00,
2013-10-23 13:42:00,35.0,32.0,30.22,NW,314,10.0,-999.0,87,-99.99,,,-99.99,,2013-10-23 18:42:00,
2013-10-23 13:51:00,36.0,33.0,30.22,NW,314,9.0,-999.0,87,-99.99,,,-99.99,,2013-10-23 18:51:00,
2013-10-23 14:12:00,37.0,34.0,30.22,NW,325,10.0,-999.0,87,-99.99,,,-99.99,,2013-10-23 19:12:00,
2013-10-23 14:22:00,37.0,33.0,30.22,NW,325,11.0,-999.0,85,-99.99,,,-99.99,,2013-10-23 19:22:00,
2013-10-23 14:42:00,39.0,34.0,30.21,NW,317,11.0,-999.0,83,-99.99,,,-99.99,,2013-10-23 19:42:00,
2013-10-23 14:53:00,39.0,33.0,30.22,WNW,300,12.0,-999.0,78,-99.99,,,-99.99,,2013-10-23 19:53:00,
2013-10-23 15:11:00,39.0,32.0,30.21,NW,320,11.0,-999.0,77,-99.99,,,-99.99,,2013-10-23 20:11:00,
2013-10-23 15:22:00,39.0,33.0,30.22,NW,321,9.0,-999.0,80,-99.99,,,-99.99,,2013-10-23 20:22:00,
2013-10-23 15:42:00,39.0,32.0,30.22,NNW,336,9.0,-999.0,76,-99.99,,,-99.99,,2013-10-23 20:42:00,
2013-10-23 15:52:00,40.0,32.0,30.22,NW,304,11.0,-999.0,73,-99.99,,,-99.99,,2013-10-23 20:52:00,
2013-10-23 16:12:00,40.0,31.0,30.22,NW,326,10.0,-999.0,70,-99.99,,,-99.99,,2013-10-23 21:12:00,
2013-10-23 16:22:00,39.0,31.0,30.22,NNW,327,10.0,-999.0,72,-99.99,,,-99.99,,2013-10-23 21:22:00,
2013-10-23 16:43:00,39.0,29.0,30.22,NNW,329,10.0,-999.0,67,-99.99,,,-99.99,,2013-10-23 21:43:00,
2013-10-23 16:54:00,40.0,30.0,30.23,NW,309,9.0,-999.0,68,-99.99,,,-99.99,,2013-10-23 21:54:00,
2013-10-23 17:13:00,39.0,29.0,30.23,NW,321,9.0,-999.0,68,-99.99,,,-99.99,,2013-10-23 22:13:00,
2013-10-23 17:24:00,40.0,29.0,30.23,NW,323,10.0,-999.0,65,-99.99,,,-99.99,,2013-10-23 22:24:00,
2013-10-23 17:43:00,40.0,30.0,30.23,NW,317,10.0,-999.0,66,-99.99,,,-99.99,,2013-10-23 22:43:00,
2013-10-23 17:54:00,40.0,30.0,30.23,NW,317,9.0,-999.0,66,-99.99,,,-99.99,,2013-10-23 22:54:00,
2013-10-23 18:12:00,40.0,30.0,30.23,NW,322,9.0,-999.0,66,-99.99,,,-99.99,,2013-10-23 23:12:00,
2013-10-23 18:22:00,39.0,30.0,30.23,NW,313,7.0,-999.0,69,-99.99,,,-99.99,,2013-10-23 23:22:00,
2013-10-23 18:42:00,38.0,29.0,30.24,WNW,300,6.0,-999.0,71,-99.99,,,-99.99,,2013-10-23 23:42:00,
2013-10-23 18:52:00,37.0,29.0,30.23,NW,304,7.0,-999.0,73,-99.99,,,-99.99,,2013-10-23 23:52:00,
2013-10-23 19:12:00,36.0,29.0,30.24,WNW,302,5.0,-999.0,75,-99.99,,,-99.99,,2013-10-24 00:12:00,
2013-10-23 19:22:00,35.0,29.0,30.24,WNW,302,4.0,-999.0,79,-99.99,,,-99.99,,2013-10-24 00:22:00,
2013-10-23 19:52:00,35.0,29.0,30.25,WNW,299,5.0,-999.0,79,-99.99,,,-99.99,,2013-10-24 00:52:00,
2013-10-23 20:11:00,34.0,29.0,30.25,WNW,300,4.0,-999.0,81,-99.99,,,-99.99,,2013-10-24 01:11:00,
2013-10-23 20:22:00,33.0,29.0,30.25,WNW,299,5.0,-999.0,84,-99.99,,,-99.99,,2013-10-24 01:22:00,
2013-10-23 20:42:00,33.0,29.0,30.25,WNW,286,7.0,-999.0,85,-99.99,,,-99.99,,2013-10-24 01:42:00,
2013-10-23 20:52:00,33.0,29.0,30.25,WNW,284,7.0,-999.0,84,-99.99,,,-99.99,,2013-10-24 01:52:00,
2013-10-23 21:12:00,33.0,29.0,30.26,WNW,284,7.0,-999.0,84,-99.99,,,-99.99,,2013-10-24 02:12:00,
2013-10-23 21:22:00,33.0,29.0,30.26,West,281,8.0,-999.0,84,-99.99,,,-99.99,,2013-10-24 02:22:00,
2013-10-23 22:12:00,32.0,28.0,30.27,West,279,9.0,-999.0,85,-99.99,,,-99.99,,2013-10-24 03:12:00,
2013-10-23 22:22:00,32.0,28.0,30.27,WNW,283,8.0,-999.0,85,-99.99,,,-99.99,,2013-10-24 03:22:00,
2013-10-23 22:54:00,32.0,28.0,30.27,WNW,288,9.0,-999.0,86,-99.99,,,-99.99,,2013-10-24 03:54:00,
2013-10-23 23:14:00,32.0,28.0,30.27,WNW,284,7.0,-999.0,86,-99.99,,,-99.99,,2013-10-24 04:14:00,
2013-10-23 23:24:00,31.0,27.0,30.27,WNW,284,7.0,-999.0,86,-99.99,,,-99.99,,2013-10-24 04:24:00,
2013-10-23 23:44:00,31.0,28.0,30.27,WNW,283,6.0,-999.0,87,-99.99,,,-99.99,,2013-10-24 04:44:00,
2013-10-23 23:54:00,31.0,28.0,30.27,WNW,284,7.0,-999.0,87,-99.99,,,-99.99,,2013-10-24 04:54:00,